| time (UTC) | temp C | wind direction | speed KPH | gust KPH | rain 1hr cm | rain 24hr cm | rain mn cm | humidity % | barometer mb |
| 20260502225713 | 16 | 241 | 8.0 | 16.1 | 0.00 | 0.00 | 0.00 | 38 | 1009.0 |
| 20260502223714 | 16 | 233 | 8.0 | 19.3 | 0.00 | 0.00 | 0.00 | 37 | 1009.2 |
| 20260502222713 | 16 | 296 | 6.4 | 16.1 | 0.00 | 0.00 | 0.00 | 37 | 1009.3 |
| 20260502221711 | 16 | 221 | 9.7 | 24.1 | 0.00 | 0.00 | 0.00 | 37 | 1009.3 |
| 20260502220712 | 16 | 229 | 6.4 | 33.8 | 0.00 | 0.00 | 0.00 | 37 | 1009.4 |
| 20260502215711 | 16 | 325 | 11.3 | 24.1 | 0.00 | 0.00 | 0.00 | 36 | 1009.7 |
| 20260502214713 | 16 | 229 | 8.0 | 29.0 | 0.00 | 0.00 | 0.00 | 36 | 1009.6 |
| 20260502213712 | 17 | 270 | 9.7 | 30.6 | 0.00 | 0.00 | 0.00 | 37 | 1009.8 |
| 20260502211709 | 17 | 257 | 12.9 | 27.4 | 0.00 | 0.00 | 0.00 | 34 | 1010.2 |
| 20260502210709 | 17 | 234 | 8.0 | 25.7 | 0.00 | 0.00 | 0.00 | 35 | 1010.2 |
| 20260502205710 | 16 | 324 | 4.8 | 14.5 | 0.00 | 0.00 | 0.00 | 35 | 1010.4 |
| 20260502204709 | 17 | 267 | 11.3 | 25.7 | 0.00 | 0.00 | 0.00 | 33 | 1010.7 |
| 20260502203710 | 16 | 227 | 11.3 | 24.1 | 0.00 | 0.00 | 0.00 | 34 | 1010.8 |
| 20260502202710 | 17 | 215 | 11.3 | 30.6 | 0.00 | 0.00 | 0.00 | 32 | 1010.8 |
| 20260502201711 | 17 | 281 | 11.3 | 27.4 | 0.00 | 0.00 | 0.00 | 32 | 1011.1 |
| 20260502200711 | 16 | 262 | 11.3 | 32.2 | 0.00 | 0.00 | 0.00 | 33 | 1011.2 |
| 20260502195710 | 16 | 293 | 8.0 | 20.9 | 0.00 | 0.00 | 0.00 | 33 | 1011.4 |
| 20260502194709 | 16 | 264 | 12.9 | 29.0 | 0.00 | 0.00 | 0.00 | 36 | 1011.6 |
| 20260502193710 | 16 | 194 | 11.3 | 22.5 | 0.00 | 0.00 | 0.00 | 32 | 1011.7 |
| 20260502192711 | 16 | 287 | 8.0 | 25.7 | 0.00 | 0.00 | 0.00 | 34 | 1012.1 |
| 20260502191710 | 17 | 256 | 4.8 | 24.1 | 0.00 | 0.00 | 0.00 | 33 | 1012.1 |
| 20260502190710 | 16 | 308 | 9.7 | 20.9 | 0.00 | 0.00 | 0.00 | 35 | 1012.2 |
| 20260502185710 | 16 | 223 | 8.0 | 22.5 | 0.00 | 0.00 | 0.00 | 33 | 1012.2 |
| 20260502184709 | 16 | 272 | 9.7 | 24.1 | 0.00 | 0.00 | 0.00 | 34 | 1012.5 |
| 20260502183708 | 15 | 351 | 8.0 | 22.5 | 0.00 | 0.00 | 0.00 | 34 | 1012.6 |
| 20260502181706 | 15 | 236 | 11.3 | 20.9 | 0.00 | 0.00 | 0.00 | 35 | 1013.0 |
| 20260502180705 | 15 | 201 | 12.9 | 35.4 | 0.00 | 0.00 | 0.00 | 34 | 1013.4 |
| 20260502163703 | 13 | 242 | 6.4 | 19.3 | 0.00 | 0.00 | 0.00 | 34 | 1014.8 |
| 20260502162703 | 13 | 270 | 8.0 | 19.3 | 0.00 | 0.00 | 0.00 | 36 | 1014.9 |
| 20260502161704 | 12 | 286 | 11.3 | 22.5 | 0.00 | 0.00 | 0.00 | 36 | 1015.0 |
| 20260502151701 | 11 | 238 | 4.8 | 12.9 | 0.00 | 0.00 | 0.00 | 39 | 1015.9 |
| 20260502150700 | 11 | 239 | 3.2 | 14.5 | 0.00 | 0.00 | 0.00 | 40 | 1016.1 |
| 20260502130658 | 1 | 133 | 0.0 | 3.2 | 0.00 | 0.00 | 0.00 | 80 | 1016.9 |
| 20260502123658 | -1 | 130 | 0.0 | 0.0 | 0.00 | 0.00 | 0.00 | 87 | 1016.9 |
| 20260502122657 | -2 | 130 | 0.0 | 0.0 | 0.00 | 0.00 | 0.00 | 87 | 1016.9 |
| 20260502120656 | -2 | 130 | 0.0 | 0.0 | 0.00 | 0.00 | 0.00 | 88 | 1016.9 |
| 20260502115656 | -3 | 130 | 0.0 | 0.0 | 0.00 | 0.00 | 0.00 | 88 | 1017.0 |
| 20260502113656 | -3 | 130 | 0.0 | 0.0 | 0.00 | 0.00 | 0.00 | 87 | 1017.0 |
| 20260502111657 | -3 | 130 | 0.0 | 0.0 | 0.00 | 0.00 | 0.00 | 87 | 1016.9 |
| 20260502110657 | -3 | 130 | 0.0 | 0.0 | 0.00 | 0.00 | 0.00 | 87 | 1017.0 |
| 20260502105656 | -3 | 130 | 0.0 | 0.0 | 0.00 | 0.00 | 0.00 | 87 | 1016.9 |
| 20260502103654 | -3 | 130 | 0.0 | 0.0 | 0.00 | 0.00 | 0.00 | 86 | 1017.0 |
| 20260502102654 | -3 | 130 | 0.0 | 0.0 | 0.00 | 0.00 | 0.00 | 86 | 1017.1 |
| 20260502101654 | -3 | 130 | 0.0 | 3.2 | 0.00 | 0.00 | 0.00 | 85 | 1017.1 |
| 20260502090650 | -3 | 130 | 0.0 | 0.0 | 0.00 | 0.00 | 0.00 | 84 | 1017.1 |
| 20260502070647 | -2 | 135 | 0.0 | 0.0 | 0.00 | 0.00 | 0.00 | 79 | 1017.8 |
| 20260502065644 | -1 | 135 | 0.0 | 0.0 | 0.00 | 0.00 | 0.00 | 79 | 1017.9 |
| 20260502063643 | -1 | 135 | 0.0 | 0.0 | 0.00 | 0.00 | 0.00 | 77 | 1018.0 |
| 20260502062642 | -1 | 135 | 0.0 | 0.0 | 0.00 | 0.00 | 0.00 | 77 | 1017.9 |
| 20260502060642 | -1 | 135 | 0.0 | 0.0 | 0.00 | 0.00 | 0.00 | 76 | 1018.0 |
| 20260502052642 | 0 | 135 | 0.0 | 0.0 | 0.00 | 0.00 | 0.00 | 74 | 1018.1 |
| 20260502051642 | 0 | 135 | 0.0 | 0.0 | 0.00 | 0.00 | 0.00 | 73 | 1018.0 |
| 20260502050642 | 0 | 135 | 0.0 | 0.0 | 0.00 | 0.00 | 0.00 | 73 | 1018.0 |
| 20260502045641 | 0 | 135 | 0.0 | 0.0 | 0.00 | 0.00 | 0.00 | 73 | 1018.0 |
| 20260502044640 | 0 | 135 | 0.0 | 0.0 | 0.00 | 0.00 | 0.00 | 72 | 1018.1 |
| 20260502043640 | 0 | 135 | 0.0 | 0.0 | 0.00 | 0.00 | 0.00 | 71 | 1018.1 |
| 20260502042640 | 0 | 135 | 0.0 | 0.0 | 0.00 | 0.00 | 0.00 | 69 | 1018.1 |
| 20260502041641 | 0 | 135 | 0.0 | 0.0 | 0.00 | 0.00 | 0.00 | 69 | 1018.1 |
| 20260502040640 | 0 | 135 | 0.0 | 0.0 | 0.00 | 0.00 | 0.00 | 69 | 1018.1 |
| 20260502035641 | 1 | 135 | 0.0 | 0.0 | 0.00 | 0.00 | 0.00 | 69 | 1018.1 |
| 20260502034639 | 1 | 135 | 0.0 | 0.0 | 0.00 | 0.00 | 0.00 | 66 | 1018.1 |
| 20260502033635 | 1 | 135 | 0.0 | 0.0 | 0.00 | 0.00 | 0.00 | 64 | 1018.1 |
| 20260502032634 | 2 | 135 | 0.0 | 0.0 | 0.00 | 0.00 | 0.00 | 64 | 1018.1 |
| 20260502030634 | 2 | 135 | 0.0 | 0.0 | 0.00 | 0.00 | 0.00 | 62 | 1018.0 |
| 20260502025633 | 2 | 135 | 0.0 | 0.0 | 0.00 | 0.00 | 0.00 | 60 | 1018.1 |
| 20260502024634 | 3 | 135 | 0.0 | 0.0 | 0.00 | 0.00 | 0.00 | 58 | 1018.1 |
| 20260502023635 | 3 | 135 | 0.0 | 0.0 | 0.00 | 0.00 | 0.00 | 57 | 1018.0 |
| 20260502022635 | 4 | 135 | 0.0 | 1.6 | 0.00 | 0.00 | 0.00 | 56 | 1018.1 |
| 20260502020628 | 5 | 135 | 0.0 | 1.6 | 0.00 | 0.00 | 0.00 | 53 | 1017.9 |
| 20260502012628 | 6 | 143 | 3.2 | 4.8 | 0.00 | 0.00 | 0.00 | 48 | 1017.6 |
| 20260502011630 | 7 | 134 | 3.2 | 12.9 | 0.00 | 0.00 | 0.00 | 47 | 1017.5 |
| 20260502010625 | 7 | 85 | 1.6 | 4.8 | 0.00 | 0.00 | 0.00 | 47 | 1017.4 |
| 20260502004624 | 8 | 138 | 4.8 | 14.5 | 0.00 | 0.00 | 0.00 | 42 | 1017.4 |
| 20260502002625 | 9 | 11 | 3.2 | 16.1 | 0.00 | 0.00 | 0.00 | 34 | 1017.2 |
| 20260502001624 | 10 | 63 | 1.6 | 4.8 | 0.00 | 0.00 | 0.00 | 34 | 1017.1 |
| 20260502000623 | 10 | 46 | 1.6 | 6.4 | 0.00 | 0.00 | 0.00 | 35 | 1017.1 |
| 20260501235623 | 10 | 284 | 3.2 | 8.0 | 0.00 | 0.00 | 0.00 | 34 | 1017.1 |
| 20260501234623 | 10 | 58 | 1.6 | 6.4 | 0.00 | 0.00 | 0.00 | 35 | 1017.0 |
| 20260501233624 | 10 | 5 | 4.8 | 11.3 | 0.00 | 0.00 | 0.00 | 32 | 1017.0 |
| 20260501231623 | 11 | 355 | 3.2 | 8.0 | 0.00 | 0.00 | 0.00 | 34 | 1017.0 |
| 20260501230624 | 11 | 290 | 3.2 | 6.4 | 0.00 | 0.00 | 0.00 | 34 | 1017.1 |